Flag for U.S.A. Weather past 2 weeks in Pullman, Washington, U.S.A.

Now
88 °F

Sunny.


Feels Like: 85 °F
Forecast: 58 / 91 °F
Wind: 5 mph from North

Location: Pullman / Moscow Regional Airport

Current Time: Jul 6, 2015 at 2:06:09 PM

Latest Report: Jul 6, 2015 at 12:53 PM


Visibility: 10 mi

Pressure: 30.01 "Hg (27.69 "Hg at 715m altitude)

Humidity: 21%

Dew point: 43 °F

Location of PullmanLocation

Historic Weather in Pullman — Graph

°F

Pullman temperature yesterday

Maximum temperature yesterday: 90 °F (at 2:53 PM)
Minimum temperature yesterday: 55 °F (at 3:53 AM)
Average temperature yesterday: 76 °F

Past Weeks' High & Low Weather Summary

 TemperatureHumidityPressure
High104 °F (Jun 28, 3:53 PM)83% (Jun 30, 12:53 AM)30.17 "Hg (Jun 30, 12:53 AM)
Low44 °F (Jun 22, 4:53 AM)14% (Jun 28, 3:53 PM)29.68 "Hg (Jul 4, 6:53 PM)
Average74 °F45%29.95 "Hg
* Reported Jun 21 12:53 PM — Jul 6 12:53 PM, Pullman, Weather by CustomWeather, © 2015

Note: Actual official high and low records may vary slightly from our data, if they occured in-between our weather recording intervals... More about our weather records

Advertising

Pullman weather history for previous 24 hours

 ConditionsComfort  
Time TempWeatherWind HumidityBarometerVisibility
12:53 PM
Mon, Jul 6
88 °FSunny.5 mph21%30.01 "Hg10 mi
11:53 AM84 °FSunny.6 mph31%30.01 "Hg10 mi
10:53 AM81 °FSunny.3 mph34%30.02 "Hg10 mi
9:53 AM77 °FSunny.5 mph42%30.03 "Hg10 mi
8:53 AM75 °FSunny.10 mph42%30.02 "Hg10 mi
7:53 AM71 °FSunny.9 mph47%30.01 "Hg10 mi
6:53 AM66 °FSunny.8 mph56%29.99 "Hg10 mi
5:53 AM61 °FClear.3 mph65%29.99 "Hg10 mi
4:53 AM53 °FClear.No wind77%29.99 "Hg10 mi
3:53 AM54 °FClear.No wind77%29.98 "Hg10 mi
2:53 AM57 °FClear.No wind72%29.97 "Hg10 mi
1:53 AM57 °FClear.No wind72%29.97 "Hg10 mi
12:53 AM59 °FClear.No wind67%29.96 "Hg10 mi
11:53 PM
Sun, Jul 5
67 °FClear.6 mph53%29.94 "Hg10 mi
10:53 PM70 °FClear.9 mph47%29.93 "Hg8 mi
9:53 PM70 °FClear.12 mph47%29.92 "Hg6 mi
8:53 PM75 °FSunny.9 mph39%29.89 "Hg5 mi
7:53 PM79 °FSunny.10 mph35%29.88 "Hg7 mi
6:53 PM85 °FSunny.15 mph27%29.86 "Hg10 mi
5:53 PM88 °FSunny.14 mph23%29.85 "Hg10 mi
4:53 PM89 °FSunny.10 mph23%29.85 "Hg10 mi
3:53 PM90 °FSunny.10 mph22%29.85 "Hg10 mi
2:53 PM90 °FSunny.5 mph22%29.84 "Hg10 mi
Weather by CustomWeather, © 2015

See weather overviewHow to use our weather pages